Year,Month,Day,Hour,Minute,Value (Times are PST for temperature in C)
2011,05,01,00,00,7.90
2011,05,01,00,01,7.90
2011,05,01,00,02,7.80
2011,05,01,00,03,7.80
2011,05,01,00,04,7.80
2011,05,01,00,05,7.80
2011,05,01,00,06,7.80
2011,05,01,00,07,7.80
2011,05,01,00,08,7.80
2011,05,01,00,09,7.80
2011,05,01,00,10,7.80
2011,05,01,00,11,7.80
2011,05,01,00,12,7.80
2011,05,01,00,13,7.70
2011,05,01,00,14,7.70
2011,05,01,00,15,7.70
2011,05,01,00,16,7.70
2011,05,01,00,17,7.70
2011,05,01,00,18,7.60
2011,05,01,00,19,7.60
2011,05,01,00,20,7.60
2011,05,01,00,21,7.60
2011,05,01,00,22,7.60
2011,05,01,00,23,7.60
2011,05,01,00,24,7.60
2011,05,01,00,25,7.60
2011,05,01,00,26,7.50
2011,05,01,00,27,7.50
2011,05,01,00,28,7.50
2011,05,01,00,29,7.50
2011,05,01,00,30,7.50
2011,05,01,00,31,7.50
2011,05,01,00,32,7.50
2011,05,01,00,33,7.50
2011,05,01,00,34,7.50
2011,05,01,00,35,7.50
2011,05,01,00,36,7.50
2011,05,01,00,37,7.50
2011,05,01,00,38,7.50
2011,05,01,00,39,7.40
2011,05,01,00,40,7.40
2011,05,01,00,41,7.40
2011,05,01,00,42,7.40
2011,05,01,00,43,7.40
2011,05,01,00,44,7.30
2011,05,01,00,45,7.30
2011,05,01,00,46,7.30
2011,05,01,00,47,7.30
2011,05,01,00,48,7.30
2011,05,01,00,49,7.30
2011,05,01,00,50,7.30
2011,05,01,00,51,7.30
2011,05,01,00,52,7.30
2011,05,01,00,53,7.30
2011,05,01,00,54,7.20
2011,05,01,00,55,7.20
2011,05,01,00,56,7.20
2011,05,01,00,57,7.20
2011,05,01,00,58,7.20
2011,05,01,00,59,7.10
2011,05,01,01,00,7.10
2011,05,01,01,01,7.10
2011,05,01,01,02,7.10
2011,05,01,01,03,7.10
2011,05,01,01,04,7.10
2011,05,01,01,05,7.10
2011,05,01,01,06,7.10
2011,05,01,01,07,7.10
2011,05,01,01,08,7.10
2011,05,01,01,09,7.10
2011,05,01,01,10,7.10
2011,05,01,01,11,7.10
2011,05,01,01,12,7.10
2011,05,01,01,13,7.10
2011,05,01,01,14,7.10
2011,05,01,01,15,7.20
2011,05,01,01,16,7.20
2011,05,01,01,17,7.20
2011,05,01,01,18,7.20
2011,05,01,01,19,7.20
2011,05,01,01,20,7.20
2011,05,01,01,21,7.20
2011,05,01,01,22,7.10
2011,05,01,01,23,7.10
2011,05,01,01,24,7.10
2011,05,01,01,25,7.10
2011,05,01,01,26,7.10
2011,05,01,01,27,7.10
2011,05,01,01,28,7.10
2011,05,01,01,29,7.10
2011,05,01,01,30,7.10
2011,05,01,01,31,7.10
2011,05,01,01,32,7.10
2011,05,01,01,33,7.10
2011,05,01,01,34,7.10
2011,05,01,01,35,7.10
2011,05,01,01,36,7.10
2011,05,01,01,37,7.10
2011,05,01,01,38,7.10
2011,05,01,01,39,7.10
2011,05,01,01,40,7.10
2011,05,01,01,41,7.10
2011,05,01,01,42,7.10
2011,05,01,01,43,7.10
2011,05,01,01,44,7.10
2011,05,01,01,45,7.10
2011,05,01,01,46,7.10
2011,05,01,01,47,7.00
2011,05,01,01,48,7.00
2011,05,01,01,49,7.00
2011,05,01,01,50,6.90
2011,05,01,01,51,6.90
2011,05,01,01,52,6.90
2011,05,01,01,53,6.90
2011,05,01,01,54,6.90
2011,05,01,01,55,6.80
2011,05,01,01,56,6.80
2011,05,01,01,57,6.80
2011,05,01,01,58,6.80
2011,05,01,01,59,6.80
2011,05,01,02,00,6.80
2011,05,01,02,01,6.70
2011,05,01,02,02,6.70
2011,05,01,02,03,6.70
2011,05,01,02,04,6.70
2011,05,01,02,05,6.60
2011,05,01,02,06,6.60
2011,05,01,02,07,6.60
2011,05,01,02,08,6.60
2011,05,01,02,09,6.60
2011,05,01,02,10,6.60
2011,05,01,02,11,6.60
2011,05,01,02,12,6.60
2011,05,01,02,13,6.50
2011,05,01,02,14,6.40
2011,05,01,02,15,6.40
2011,05,01,02,16,6.40
2011,05,01,02,17,6.40
2011,05,01,02,18,6.40
2011,05,01,02,19,6.40
2011,05,01,02,20,6.40
2011,05,01,02,21,6.40
2011,05,01,02,22,6.40
2011,05,01,02,23,6.40
2011,05,01,02,24,6.40
2011,05,01,02,25,6.40
2011,05,01,02,26,6.40
2011,05,01,02,27,6.30
2011,05,01,02,28,6.30
2011,05,01,02,29,6.30
2011,05,01,02,30,6.30
2011,05,01,02,31,6.30
2011,05,01,02,32,6.20
2011,05,01,02,33,6.20
2011,05,01,02,34,6.20
2011,05,01,02,35,6.20
2011,05,01,02,36,6.20
2011,05,01,02,37,6.20
2011,05,01,02,38,6.20
2011,05,01,02,39,6.20
2011,05,01,02,40,6.10
2011,05,01,02,41,6.10
2011,05,01,02,42,6.10
2011,05,01,02,43,6.10
2011,05,01,02,44,6.10
2011,05,01,02,45,6.10
2011,05,01,02,46,6.00
2011,05,01,02,47,6.00
2011,05,01,02,48,6.00
2011,05,01,02,49,6.00
2011,05,01,02,50,5.90
2011,05,01,02,51,5.90
2011,05,01,02,52,5.90
2011,05,01,02,53,5.90
2011,05,01,02,54,5.90
2011,05,01,02,55,5.90
2011,05,01,02,56,5.90
2011,05,01,02,57,5.90
2011,05,01,02,58,5.90
2011,05,01,02,59,5.90
2011,05,01,03,00,5.90
2011,05,01,03,01,5.90
2011,05,01,03,02,5.90
2011,05,01,03,03,5.90
2011,05,01,03,04,5.90
2011,05,01,03,05,5.90
2011,05,01,03,06,5.90
2011,05,01,03,07,5.80
2011,05,01,03,08,5.80
2011,05,01,03,09,5.80
2011,05,01,03,10,5.80
2011,05,01,03,11,5.80
2011,05,01,03,12,5.80
2011,05,01,03,13,5.80
2011,05,01,03,14,5.80
2011,05,01,03,15,5.80
2011,05,01,03,16,5.80
2011,05,01,03,17,5.80
2011,05,01,03,18,5.80
2011,05,01,03,19,5.80
2011,05,01,03,20,5.80
2011,05,01,03,21,5.70
2011,05,01,03,22,5.70
2011,05,01,03,23,5.70
2011,05,01,03,24,5.70
2011,05,01,03,25,5.70
2011,05,01,03,26,5.70
2011,05,01,03,27,5.70
2011,05,01,03,28,5.70
2011,05,01,03,29,5.70
2011,05,01,03,30,5.70
2011,05,01,03,31,5.70
2011,05,01,03,32,5.70
2011,05,01,03,33,5.60
2011,05,01,03,34,5.60
2011,05,01,03,35,5.50
2011,05,01,03,36,5.50
2011,05,01,03,37,5.40
2011,05,01,03,38,5.50
2011,05,01,03,39,5.50
2011,05,01,03,40,5.50
2011,05,01,03,41,5.50
2011,05,01,03,42,5.50
2011,05,01,03,43,5.50
2011,05,01,03,44,5.50
2011,05,01,03,45,5.50
2011,05,01,03,46,5.50
2011,05,01,03,47,5.40
2011,05,01,03,48,5.40
2011,05,01,03,49,5.40
2011,05,01,03,50,5.30
2011,05,01,03,51,5.30
2011,05,01,03,52,5.20
2011,05,01,03,53,5.20
2011,05,01,03,54,5.10
2011,05,01,03,55,5.10
2011,05,01,03,56,5.10
2011,05,01,03,57,5.10
2011,05,01,03,58,5.20
2011,05,01,03,59,5.20
2011,05,01,04,00,5.30
2011,05,01,04,01,5.30
2011,05,01,04,02,5.30
2011,05,01,04,03,5.20
2011,05,01,04,04,5.20
2011,05,01,04,05,5.20
2011,05,01,04,06,5.20
2011,05,01,04,07,5.20
2011,05,01,04,08,5.20
2011,05,01,04,09,5.20
2011,05,01,04,10,5.10
2011,05,01,04,11,5.10
2011,05,01,04,12,5.10
2011,05,01,04,13,5.10
2011,05,01,04,14,5.10
2011,05,01,04,15,5.00
2011,05,01,04,16,4.90
2011,05,01,04,17,4.90
2011,05,01,04,18,4.90
2011,05,01,04,19,4.80
2011,05,01,04,20,4.80
2011,05,01,04,21,4.80
2011,05,01,04,22,4.70
2011,05,01,04,23,4.70
2011,05,01,04,24,4.70
2011,05,01,04,25,4.70
2011,05,01,04,26,4.70
2011,05,01,04,27,4.60
2011,05,01,04,28,4.60
2011,05,01,04,29,4.60
2011,05,01,04,30,4.60
2011,05,01,04,31,4.60
2011,05,01,04,32,4.60
2011,05,01,04,33,4.60
2011,05,01,04,34,4.70
2011,05,01,04,35,4.80
2011,05,01,04,36,4.90
2011,05,01,04,37,5.00
2011,05,01,04,38,5.10
2011,05,01,04,39,5.10
2011,05,01,04,40,5.10
2011,05,01,04,41,5.10
2011,05,01,04,42,5.20
2011,05,01,04,43,5.20
2011,05,01,04,44,5.20
2011,05,01,04,45,5.20
2011,05,01,04,46,5.20
2011,05,01,04,47,5.20
2011,05,01,04,48,5.20
2011,05,01,04,49,5.20
2011,05,01,04,50,5.10
2011,05,01,04,51,5.10
2011,05,01,04,52,5.10
2011,05,01,04,53,5.10
2011,05,01,04,54,5.10
2011,05,01,04,55,5.10
2011,05,01,04,56,5.10
2011,05,01,04,57,5.00
2011,05,01,04,58,4.90
2011,05,01,04,59,4.90
2011,05,01,05,00,4.90
2011,05,01,05,01,4.90
2011,05,01,05,02,4.80
2011,05,01,05,03,4.80
2011,05,01,05,04,4.70
2011,05,01,05,05,4.70
2011,05,01,05,06,4.60
2011,05,01,05,07,4.60
2011,05,01,05,08,4.60
2011,05,01,05,09,4.60
2011,05,01,05,10,4.50
2011,05,01,05,11,4.50
2011,05,01,05,12,4.50
2011,05,01,05,13,4.40
2011,05,01,05,14,4.40
2011,05,01,05,15,4.40
2011,05,01,05,16,4.40
2011,05,01,05,17,4.30
2011,05,01,05,18,4.30
2011,05,01,05,19,4.30
2011,05,01,05,20,4.30
2011,05,01,05,21,4.20
2011,05,01,05,22,4.20
2011,05,01,05,23,4.20
2011,05,01,05,24,4.20
2011,05,01,05,25,4.30
2011,05,01,05,26,4.30
2011,05,01,05,27,4.30
2011,05,01,05,28,4.40
2011,05,01,05,29,4.40
2011,05,01,05,30,4.40
2011,05,01,05,31,4.40
2011,05,01,05,32,4.40
2011,05,01,05,33,4.40
2011,05,01,05,34,4.40
2011,05,01,05,35,4.40
2011,05,01,05,36,4.30
2011,05,01,05,37,4.40
2011,05,01,05,38,4.40
2011,05,01,05,39,4.50
2011,05,01,05,40,4.50
2011,05,01,05,41,4.50
2011,05,01,05,42,4.60
2011,05,01,05,43,4.60
2011,05,01,05,44,4.50
2011,05,01,05,45,4.50
2011,05,01,05,46,4.50
2011,05,01,05,47,4.50
2011,05,01,05,48,4.40
2011,05,01,05,49,4.40
2011,05,01,05,50,4.40
2011,05,01,05,51,4.40
2011,05,01,05,52,4.40
2011,05,01,05,53,4.40
2011,05,01,05,54,4.40
2011,05,01,05,55,4.40
2011,05,01,05,56,4.40
2011,05,01,05,57,4.40
2011,05,01,05,58,4.40
2011,05,01,05,59,4.30
2011,05,01,06,00,4.30
2011,05,01,06,01,4.30
2011,05,01,06,02,4.30
2011,05,01,06,03,4.30
2011,05,01,06,04,4.30
2011,05,01,06,05,4.30
2011,05,01,06,06,4.30
2011,05,01,06,07,4.30
2011,05,01,06,08,4.30
2011,05,01,06,09,4.30
2011,05,01,06,10,4.20
2011,05,01,06,11,4.20
2011,05,01,06,12,4.20
2011,05,01,06,13,4.20
2011,05,01,06,14,4.30
2011,05,01,06,15,4.30
2011,05,01,06,16,4.40
2011,05,01,06,17,4.40
2011,05,01,06,18,4.40
2011,05,01,06,19,4.50
2011,05,01,06,20,4.50
2011,05,01,06,21,4.60
2011,05,01,06,22,4.60
2011,05,01,06,23,4.60
2011,05,01,06,24,4.60
2011,05,01,06,25,4.60
2011,05,01,06,26,4.70
2011,05,01,06,27,4.70
2011,05,01,06,28,4.70
2011,05,01,06,29,4.80
2011,05,01,06,30,4.80
2011,05,01,06,31,4.80
2011,05,01,06,32,4.90
2011,05,01,06,33,4.90
2011,05,01,06,34,4.90
2011,05,01,06,35,4.90
2011,05,01,06,36,4.90
2011,05,01,06,37,4.90
2011,05,01,06,38,5.00
2011,05,01,06,39,5.10
2011,05,01,06,40,5.10
2011,05,01,06,41,5.10
2011,05,01,06,42,5.10
2011,05,01,06,43,5.10
2011,05,01,06,44,5.20
2011,05,01,06,45,5.20
2011,05,01,06,46,5.20
2011,05,01,06,47,5.20
2011,05,01,06,48,5.20
2011,05,01,06,49,5.20
2011,05,01,06,50,5.30
2011,05,01,06,51,5.30
2011,05,01,06,52,5.30
2011,05,01,06,53,5.30
2011,05,01,06,54,5.30
2011,05,01,06,55,5.30
2011,05,01,06,56,5.30
2011,05,01,06,57,5.30
2011,05,01,06,58,5.40
2011,05,01,06,59,5.40
2011,05,01,07,00,5.40
2011,05,01,07,01,5.50
2011,05,01,07,02,5.60
2011,05,01,07,03,5.60
2011,05,01,07,04,5.70
2011,05,01,07,05,5.70
2011,05,01,07,06,5.80
2011,05,01,07,07,5.80
2011,05,01,07,08,5.90
2011,05,01,07,09,6.00
2011,05,01,07,10,6.10
2011,05,01,07,11,6.10
2011,05,01,07,12,6.20
2011,05,01,07,13,6.20
2011,05,01,07,14,6.20
2011,05,01,07,15,6.30
2011,05,01,07,16,6.30
2011,05,01,07,17,6.40
2011,05,01,07,18,6.40
2011,05,01,07,19,6.60
2011,05,01,07,20,6.70
2011,05,01,07,21,6.80
2011,05,01,07,22,6.90
2011,05,01,07,23,7.10
2011,05,01,07,24,7.10
2011,05,01,07,25,7.10
2011,05,01,07,26,7.10
2011,05,01,07,27,7.10
2011,05,01,07,28,7.10
2011,05,01,07,29,7.20
2011,05,01,07,30,7.20
2011,05,01,07,31,7.30
2011,05,01,07,32,7.30
2011,05,01,07,33,7.50
2011,05,01,07,34,7.50
2011,05,01,07,35,7.60
2011,05,01,07,36,7.70
2011,05,01,07,37,7.80
2011,05,01,07,38,7.80
2011,05,01,07,39,7.80
2011,05,01,07,40,7.80
2011,05,01,07,41,7.80
2011,05,01,07,42,7.80
2011,05,01,07,43,7.80
2011,05,01,07,44,7.80
2011,05,01,07,45,7.80
2011,05,01,07,46,7.80
2011,05,01,07,47,7.80
2011,05,01,07,48,7.80
2011,05,01,07,49,7.80
2011,05,01,07,50,7.80
2011,05,01,07,51,7.70
2011,05,01,07,52,7.70
2011,05,01,07,53,7.70
2011,05,01,07,54,7.70
2011,05,01,07,55,7.80
2011,05,01,07,56,7.80
2011,05,01,07,57,7.80
2011,05,01,07,58,7.70
2011,05,01,07,59,7.70
2011,05,01,08,00,7.70
2011,05,01,08,01,7.70
2011,05,01,08,02,7.70
2011,05,01,08,03,7.70
2011,05,01,08,04,7.70
2011,05,01,08,05,7.70
2011,05,01,08,06,7.80
2011,05,01,08,07,7.80
2011,05,01,08,08,7.80
2011,05,01,08,09,7.80
2011,05,01,08,10,7.80
2011,05,01,08,11,7.80
2011,05,01,08,12,7.80
2011,05,01,08,13,7.70
2011,05,01,08,14,7.60
2011,05,01,08,15,7.60
2011,05,01,08,16,7.70
2011,05,01,08,17,7.70
2011,05,01,08,18,7.70
2011,05,01,08,19,7.70
2011,05,01,08,20,7.70
2011,05,01,08,21,7.70
2011,05,01,08,22,7.70
2011,05,01,08,23,7.70
2011,05,01,08,24,7.70
2011,05,01,08,25,7.70
2011,05,01,08,26,7.70
2011,05,01,08,27,7.80
2011,05,01,08,28,7.80
2011,05,01,08,29,7.80
2011,05,01,08,30,7.80
2011,05,01,08,31,7.80
2011,05,01,08,32,7.80
2011,05,01,08,33,7.80
2011,05,01,08,34,7.80
2011,05,01,08,35,7.80
2011,05,01,08,36,7.80
2011,05,01,08,37,7.80
2011,05,01,08,38,7.80
2011,05,01,08,39,7.80
2011,05,01,08,40,7.80
2011,05,01,08,41,7.80
2011,05,01,08,42,7.80
2011,05,01,08,43,7.80
2011,05,01,08,44,7.90
2011,05,01,08,45,7.90
2011,05,01,08,46,7.90
2011,05,01,08,47,7.90
2011,05,01,08,48,8.00
2011,05,01,08,49,8.10
2011,05,01,08,50,8.10
2011,05,01,08,51,8.10
2011,05,01,08,52,8.10
2011,05,01,08,53,8.20
2011,05,01,08,54,8.20
2011,05,01,08,55,8.20
2011,05,01,08,56,8.20
2011,05,01,08,57,8.20
2011,05,01,08,58,8.20
2011,05,01,08,59,8.20
2011,05,01,09,00,8.10
2011,05,01,09,01,8.10
2011,05,01,09,02,8.00
2011,05,01,09,03,8.00
2011,05,01,09,04,8.00
2011,05,01,09,05,8.00
2011,05,01,09,06,8.00
2011,05,01,09,07,8.00
2011,05,01,09,08,8.10
2011,05,01,09,09,8.10
2011,05,01,09,10,8.10
2011,05,01,09,11,8.10
2011,05,01,09,12,8.10
2011,05,01,09,13,8.10
2011,05,01,09,14,8.10
2011,05,01,09,15,8.10
2011,05,01,09,16,8.10
2011,05,01,09,17,8.10
2011,05,01,09,18,8.10
2011,05,01,09,19,8.20
2011,05,01,09,20,8.20
2011,05,01,09,21,8.10
2011,05,01,09,22,8.10
2011,05,01,09,23,8.10
2011,05,01,09,24,8.20
2011,05,01,09,25,8.20
2011,05,01,09,26,8.20
2011,05,01,09,27,8.30
2011,05,01,09,28,8.40
2011,05,01,09,29,8.30
2011,05,01,09,30,8.30
2011,05,01,09,31,8.20
2011,05,01,09,32,8.20
2011,05,01,09,33,8.20
2011,05,01,09,34,8.20
2011,05,01,09,35,8.10
2011,05,01,09,36,8.10
2011,05,01,09,37,8.10
2011,05,01,09,38,8.10
2011,05,01,09,39,8.20
2011,05,01,09,40,8.20
2011,05,01,09,41,8.20
2011,05,01,09,42,8.20
2011,05,01,09,43,8.30
2011,05,01,09,44,8.30
2011,05,01,09,45,8.30
2011,05,01,09,46,8.30
2011,05,01,09,47,8.30
2011,05,01,09,48,8.40
2011,05,01,09,49,8.40
2011,05,01,09,50,8.40
2011,05,01,09,51,8.40
2011,05,01,09,52,8.50
2011,05,01,09,53,8.60
2011,05,01,09,54,8.60
2011,05,01,09,55,8.60
2011,05,01,09,56,8.70
2011,05,01,09,57,8.70
2011,05,01,09,58,8.70
2011,05,01,09,59,8.80
2011,05,01,10,00,8.80
2011,05,01,10,01,8.90
2011,05,01,10,02,8.90
2011,05,01,10,03,9.00
2011,05,01,10,04,9.00
2011,05,01,10,05,9.10
2011,05,01,10,06,9.10
2011,05,01,10,07,9.10
2011,05,01,10,08,9.10
2011,05,01,10,09,9.10
2011,05,01,10,10,9.10
2011,05,01,10,11,9.10
2011,05,01,10,12,9.10
2011,05,01,10,13,9.20
2011,05,01,10,14,9.20
2011,05,01,10,15,9.20
2011,05,01,10,16,9.20
2011,05,01,10,17,9.10
2011,05,01,10,18,9.10
2011,05,01,10,19,9.00
2011,05,01,10,20,9.00
2011,05,01,10,21,9.00
2011,05,01,10,22,9.00
2011,05,01,10,23,9.00
2011,05,01,10,24,9.10
2011,05,01,10,25,9.20
2011,05,01,10,26,9.30
2011,05,01,10,27,9.30
2011,05,01,10,28,9.30
2011,05,01,10,29,9.30
2011,05,01,10,30,9.20
2011,05,01,10,31,9.20
2011,05,01,10,32,9.10
2011,05,01,10,33,9.10
2011,05,01,10,34,9.10
2011,05,01,10,35,9.20
2011,05,01,10,36,9.20
2011,05,01,10,37,9.20
2011,05,01,10,38,9.30
2011,05,01,10,39,9.40
2011,05,01,10,40,9.50
2011,05,01,10,41,9.50
2011,05,01,10,42,9.50
2011,05,01,10,43,9.50
2011,05,01,10,44,9.50
2011,05,01,10,45,9.60
2011,05,01,10,46,9.70
2011,05,01,10,47,9.70
2011,05,01,10,48,9.70
2011,05,01,10,49,9.70
2011,05,01,10,50,9.70
2011,05,01,10,51,9.70
2011,05,01,10,52,9.70
2011,05,01,10,53,9.80
2011,05,01,10,54,9.80
2011,05,01,10,55,9.70
2011,05,01,10,56,9.70
2011,05,01,10,57,9.70
2011,05,01,10,58,9.70
2011,05,01,10,59,9.70
2011,05,01,11,00,9.70
2011,05,01,11,01,9.70
2011,05,01,11,02,9.70
2011,05,01,11,03,9.70
2011,05,01,11,04,9.70
2011,05,01,11,05,9.70
2011,05,01,11,06,9.70
2011,05,01,11,07,9.70
2011,05,01,11,08,9.80
2011,05,01,11,09,9.80
2011,05,01,11,10,9.90
2011,05,01,11,11,10.00
2011,05,01,11,12,10.10
2011,05,01,11,13,10.10
2011,05,01,11,14,10.20
2011,05,01,11,15,10.20
2011,05,01,11,16,10.20
2011,05,01,11,17,10.20
2011,05,01,11,18,10.10
2011,05,01,11,19,10.10
2011,05,01,11,20,10.00
2011,05,01,11,21,9.90
2011,05,01,11,22,9.90
2011,05,01,11,23,9.80
2011,05,01,11,24,9.80
2011,05,01,11,25,9.80
2011,05,01,11,26,9.80
2011,05,01,11,27,9.90
2011,05,01,11,28,9.80
2011,05,01,11,29,9.80
2011,05,01,11,30,9.80
2011,05,01,11,31,9.80
2011,05,01,11,32,9.80
2011,05,01,11,33,9.90
2011,05,01,11,34,9.90
2011,05,01,11,35,9.90
2011,05,01,11,36,9.90
2011,05,01,11,37,9.90
2011,05,01,11,38,9.80
2011,05,01,11,39,9.80
2011,05,01,11,40,9.70
2011,05,01,11,41,9.70
2011,05,01,11,42,9.70
2011,05,01,11,43,9.70
2011,05,01,11,44,9.70
2011,05,01,11,45,9.70
2011,05,01,11,46,9.60
2011,05,01,11,47,9.60
2011,05,01,11,48,9.60
2011,05,01,11,49,9.70
2011,05,01,11,50,9.70
2011,05,01,11,51,9.70
2011,05,01,11,52,9.70
2011,05,01,11,53,9.70
2011,05,01,11,54,9.70
2011,05,01,11,55,9.70
2011,05,01,11,56,9.70
2011,05,01,11,57,9.70
2011,05,01,11,58,9.70
2011,05,01,11,59,9.70
2011,05,01,12,00,9.80
2011,05,01,12,01,9.90
2011,05,01,12,02,10.00
2011,05,01,12,03,10.10
2011,05,01,12,04,10.20
2011,05,01,12,05,10.30
2011,05,01,12,06,10.40
2011,05,01,12,07,10.40
2011,05,01,12,08,10.40
2011,05,01,12,09,10.40
2011,05,01,12,10,10.40
2011,05,01,12,11,10.40
2011,05,01,12,12,10.40
2011,05,01,12,13,10.40
2011,05,01,12,14,10.30
2011,05,01,12,15,10.30
2011,05,01,12,16,10.30
2011,05,01,12,17,10.40
2011,05,01,12,18,10.40
2011,05,01,12,19,10.50
2011,05,01,12,20,10.60
2011,05,01,12,21,10.60
2011,05,01,12,22,10.50
2011,05,01,12,23,10.40
2011,05,01,12,24,10.40
2011,05,01,12,25,10.40
2011,05,01,12,26,10.40
2011,05,01,12,27,10.40
2011,05,01,12,28,10.40
2011,05,01,12,29,10.50
2011,05,01,12,30,10.60
2011,05,01,12,31,10.60
2011,05,01,12,32,10.60
2011,05,01,12,33,10.60
2011,05,01,12,34,10.80
2011,05,01,12,35,10.90
2011,05,01,12,36,11.10
2011,05,01,12,37,11.10
2011,05,01,12,38,11.20
2011,05,01,12,39,11.10
2011,05,01,12,40,11.10
2011,05,01,12,41,10.90
2011,05,01,12,42,10.90
2011,05,01,12,43,11.00
2011,05,01,12,44,11.10
2011,05,01,12,45,11.10
2011,05,01,12,46,11.10
2011,05,01,12,47,11.10
2011,05,01,12,48,11.10
2011,05,01,12,49,11.00
2011,05,01,12,50,10.90
2011,05,01,12,51,10.80
2011,05,01,12,52,10.70
2011,05,01,12,53,10.70
2011,05,01,12,54,10.70
2011,05,01,12,55,10.60
2011,05,01,12,56,10.60
2011,05,01,12,57,10.50
2011,05,01,12,58,10.40
2011,05,01,12,59,10.40
2011,05,01,13,00,10.40
2011,05,01,13,01,10.50
2011,05,01,13,02,10.50
2011,05,01,13,03,10.60
2011,05,01,13,04,10.60
2011,05,01,13,05,10.70
2011,05,01,13,06,10.90
2011,05,01,13,07,11.10
2011,05,01,13,08,11.10
2011,05,01,13,09,11.20
2011,05,01,13,10,11.30
2011,05,01,13,11,11.40
2011,05,01,13,12,11.40
2011,05,01,13,13,11.40
2011,05,01,13,14,11.40
2011,05,01,13,15,11.40
2011,05,01,13,16,11.50
2011,05,01,13,17,11.60
2011,05,01,13,18,11.60
2011,05,01,13,19,11.60
2011,05,01,13,20,11.60
2011,05,01,13,21,11.60
2011,05,01,13,22,11.60
2011,05,01,13,23,11.70
2011,05,01,13,24,11.70
2011,05,01,13,25,11.80
2011,05,01,13,26,11.80
2011,05,01,13,27,11.80
2011,05,01,13,28,11.90
2011,05,01,13,29,11.90
2011,05,01,13,30,12.00
2011,05,01,13,31,12.00
2011,05,01,13,32,11.90
2011,05,01,13,33,11.70
2011,05,01,13,34,11.60
2011,05,01,13,35,11.60
2011,05,01,13,36,11.60
2011,05,01,13,37,11.60
2011,05,01,13,38,11.60
2011,05,01,13,39,11.50
2011,05,01,13,40,11.40
2011,05,01,13,41,11.50
2011,05,01,13,42,11.60
2011,05,01,13,43,11.70
2011,05,01,13,44,11.80
2011,05,01,13,45,12.00
2011,05,01,13,46,12.10
2011,05,01,13,47,12.10
2011,05,01,13,48,12.20
2011,05,01,13,49,12.30
2011,05,01,13,50,12.30
2011,05,01,13,51,12.40
2011,05,01,13,52,12.40
2011,05,01,13,53,12.50
2011,05,01,13,54,12.30
2011,05,01,13,55,12.20
2011,05,01,13,56,12.10
2011,05,01,13,57,12.20
2011,05,01,13,58,12.30
2011,05,01,13,59,12.30
2011,05,01,14,00,12.40
2011,05,01,14,01,12.40
2011,05,01,14,02,12.30
2011,05,01,14,03,12.40
2011,05,01,14,04,12.50
2011,05,01,14,05,12.50
2011,05,01,14,06,12.60
2011,05,01,14,07,12.70
2011,05,01,14,08,12.80
2011,05,01,14,09,12.80
2011,05,01,14,10,12.80
2011,05,01,14,11,12.80
2011,05,01,14,12,12.80
2011,05,01,14,13,12.80
2011,05,01,14,14,12.80
2011,05,01,14,15,12.80
2011,05,01,14,16,12.80
2011,05,01,14,17,12.80
2011,05,01,14,18,12.90
2011,05,01,14,19,12.90
2011,05,01,14,20,13.00
2011,05,01,14,21,13.00
2011,05,01,14,22,13.00
2011,05,01,14,23,12.90
2011,05,01,14,24,12.80
2011,05,01,14,25,12.80
2011,05,01,14,26,12.70
2011,05,01,14,27,12.60
2011,05,01,14,28,12.60
2011,05,01,14,29,12.50
2011,05,01,14,30,12.40
2011,05,01,14,31,12.40
2011,05,01,14,32,12.30
2011,05,01,14,33,12.20
2011,05,01,14,34,12.30
2011,05,01,14,35,12.30
2011,05,01,14,36,12.30
2011,05,01,14,37,12.40
2011,05,01,14,38,12.50
2011,05,01,14,39,12.60
2011,05,01,14,40,12.70
2011,05,01,14,41,12.80
2011,05,01,14,42,12.80
2011,05,01,14,43,12.70
2011,05,01,14,44,12.70
2011,05,01,14,45,12.70
2011,05,01,14,46,12.70
2011,05,01,14,47,12.60
2011,05,01,14,48,12.50
2011,05,01,14,49,12.40
2011,05,01,14,50,12.30
2011,05,01,14,51,12.30
2011,05,01,14,52,12.40
2011,05,01,14,53,12.40
2011,05,01,14,54,12.40
2011,05,01,14,55,12.50
2011,05,01,14,56,12.50
2011,05,01,14,57,12.70
2011,05,01,14,58,12.70
2011,05,01,14,59,12.80
2011,05,01,15,00,12.80
2011,05,01,15,01,12.90
2011,05,01,15,02,13.00
2011,05,01,15,03,13.10
2011,05,01,15,04,13.20
2011,05,01,15,05,13.20
2011,05,01,15,06,13.10
2011,05,01,15,07,13.10
2011,05,01,15,08,13.20
2011,05,01,15,09,13.30
2011,05,01,15,10,13.50
2011,05,01,15,11,13.60
2011,05,01,15,12,13.60
2011,05,01,15,13,13.60
2011,05,01,15,14,13.70
2011,05,01,15,15,13.70
2011,05,01,15,16,13.70
2011,05,01,15,17,13.70
2011,05,01,15,18,13.70
2011,05,01,15,19,13.70
2011,05,01,15,20,13.70
2011,05,01,15,21,13.80
2011,05,01,15,22,13.90
2011,05,01,15,23,14.00
2011,05,01,15,24,13.90
2011,05,01,15,25,13.90
2011,05,01,15,26,13.80
2011,05,01,15,27,13.80
2011,05,01,15,28,13.80
2011,05,01,15,29,13.80
2011,05,01,15,30,13.90
2011,05,01,15,31,14.00
2011,05,01,15,32,14.10
2011,05,01,15,33,14.10
2011,05,01,15,34,14.20
2011,05,01,15,35,14.20
2011,05,01,15,36,14.20
2011,05,01,15,37,14.20
2011,05,01,15,38,14.10
2011,05,01,15,39,14.00
2011,05,01,15,40,13.90
2011,05,01,15,41,13.80
2011,05,01,15,42,13.70
2011,05,01,15,43,13.70
2011,05,01,15,44,13.70
2011,05,01,15,45,13.70
2011,05,01,15,46,13.80
2011,05,01,15,47,13.90
2011,05,01,15,48,14.00
2011,05,01,15,49,14.10
2011,05,01,15,50,14.20
2011,05,01,15,51,14.20
2011,05,01,15,52,14.20
2011,05,01,15,53,14.20
2011,05,01,15,54,14.20
2011,05,01,15,55,14.30
2011,05,01,15,56,14.30
2011,05,01,15,57,14.40
2011,05,01,15,58,14.40
2011,05,01,15,59,14.50
2011,05,01,16,00,14.50
2011,05,01,16,01,14.50
2011,05,01,16,02,14.50
2011,05,01,16,03,14.50
2011,05,01,16,04,14.50
2011,05,01,16,05,14.50
2011,05,01,16,06,14.40
2011,05,01,16,07,14.40
2011,05,01,16,08,14.40
2011,05,01,16,09,14.40
2011,05,01,16,10,14.30
2011,05,01,16,11,14.20
2011,05,01,16,12,14.10
2011,05,01,16,13,14.00
2011,05,01,16,14,13.90
2011,05,01,16,15,13.80
2011,05,01,16,16,13.80
2011,05,01,16,17,13.70
2011,05,01,16,18,13.70
2011,05,01,16,19,13.70
2011,05,01,16,20,13.50
2011,05,01,16,21,13.50
2011,05,01,16,22,13.40
2011,05,01,16,23,13.30
2011,05,01,16,24,13.20
2011,05,01,16,25,13.00
2011,05,01,16,26,13.00
2011,05,01,16,27,12.90
2011,05,01,16,28,12.80
2011,05,01,16,29,12.80
2011,05,01,16,30,12.70
2011,05,01,16,31,12.70
2011,05,01,16,32,12.70
2011,05,01,16,33,12.70
2011,05,01,16,34,12.80
2011,05,01,16,35,12.80
2011,05,01,16,36,12.80
2011,05,01,16,37,12.90
2011,05,01,16,38,13.10
2011,05,01,16,39,13.30
2011,05,01,16,40,13.40
2011,05,01,16,41,13.40
2011,05,01,16,42,13.50
2011,05,01,16,43,13.60
2011,05,01,16,44,13.70
2011,05,01,16,45,13.70
2011,05,01,16,46,13.80
2011,05,01,16,47,13.80
2011,05,01,16,48,13.80
2011,05,01,16,49,13.80
2011,05,01,16,50,13.80
2011,05,01,16,51,13.90
2011,05,01,16,52,13.90
2011,05,01,16,53,13.90
2011,05,01,16,54,13.90
2011,05,01,16,55,13.90
2011,05,01,16,56,13.90
2011,05,01,16,57,13.90
2011,05,01,16,58,13.90
2011,05,01,16,59,13.90
2011,05,01,17,00,13.90
2011,05,01,17,01,13.90
2011,05,01,17,02,13.90
2011,05,01,17,03,13.80
2011,05,01,17,04,13.80
2011,05,01,17,05,13.80
2011,05,01,17,06,13.80
2011,05,01,17,07,13.70
2011,05,01,17,08,13.70
2011,05,01,17,09,13.70
2011,05,01,17,10,13.70
2011,05,01,17,11,13.70
2011,05,01,17,12,13.60
2011,05,01,17,13,13.50
2011,05,01,17,14,13.50
2011,05,01,17,15,13.60
2011,05,01,17,16,13.60
2011,05,01,17,17,13.60
2011,05,01,17,18,13.50
2011,05,01,17,19,13.50
2011,05,01,17,20,13.50
2011,05,01,17,21,13.40
2011,05,01,17,22,13.40
2011,05,01,17,23,13.30
2011,05,01,17,24,13.30
2011,05,01,17,25,13.30
2011,05,01,17,26,13.30
2011,05,01,17,27,13.30
2011,05,01,17,28,13.30
2011,05,01,17,29,13.20
2011,05,01,17,30,13.20
2011,05,01,17,31,13.10
2011,05,01,17,32,13.20
2011,05,01,17,33,13.20
2011,05,01,17,34,13.30
2011,05,01,17,35,13.30
2011,05,01,17,36,13.40
2011,05,01,17,37,13.40
2011,05,01,17,38,13.50
2011,05,01,17,39,13.60
2011,05,01,17,40,13.60
2011,05,01,17,41,13.70
2011,05,01,17,42,13.70
2011,05,01,17,43,13.70
2011,05,01,17,44,13.70
2011,05,01,17,45,13.70
2011,05,01,17,46,13.60
2011,05,01,17,47,13.60
2011,05,01,17,48,13.60
2011,05,01,17,49,13.70
2011,05,01,17,50,13.70